| time (UTC) | temp F | wind direction | speed MPH | gust MPH | rain 1hr in | rain 24hr in | rain mn in | humidity % | barometer mb |
| 20260505124543 | 69 | 193 | 14.0 | 19.0 | 0.00 | 0.00 | 0.00 | 87 | 1004.9 |
| 20260505123051 | 69 | 204 | 15.0 | 23.0 | 0.00 | 0.00 | 0.00 | 87 | 1004.9 |
| 20260505121541 | 69 | 212 | 16.0 | 22.0 | 0.00 | 0.00 | 0.00 | 87 | 1004.7 |
| 20260505114539 | 69 | 205 | 11.0 | 18.0 | 0.00 | 0.00 | 0.00 | 87 | 1004.7 |
| 20260505113038 | 69 | 217 | 14.0 | 22.0 | 0.00 | 0.00 | 0.00 | 86 | 1004.8 |
| 20260505111538 | 69 | 221 | 12.0 | 22.0 | 0.00 | 0.00 | 0.00 | 86 | 1004.8 |
| 20260505101533 | 69 | 220 | 10.0 | 21.0 | 0.00 | 0.00 | 0.00 | 84 | 1004.7 |
| 20260505100035 | 69 | 206 | 13.0 | 20.0 | 0.00 | 0.00 | 0.00 | 84 | 1004.9 |
| 20260505094533 | 69 | 198 | 14.0 | 22.0 | 0.00 | 0.00 | 0.00 | 84 | 1004.8 |
| 20260505093032 | 69 | 202 | 13.0 | 24.0 | 0.00 | 0.00 | 0.00 | 84 | 1004.7 |
| 20260505091530 | 69 | 202 | 14.0 | 26.0 | 0.00 | 0.00 | 0.00 | 84 | 1004.8 |
| 20260505090029 | 69 | 188 | 14.0 | 21.0 | 0.00 | 0.00 | 0.00 | 84 | 1004.7 |
| 20260505084531 | 69 | 188 | 15.0 | 22.0 | 0.00 | 0.00 | 0.00 | 84 | 1004.8 |
| 20260505083026 | 69 | 201 | 15.0 | 22.0 | 0.00 | 0.00 | 0.00 | 84 | 1005.1 |
| 20260505081524 | 68 | 221 | 15.0 | 23.0 | 0.00 | 0.00 | 0.00 | 84 | 1005.2 |
| 20260505080021 | 68 | 207 | 16.0 | 25.0 | 0.00 | 0.00 | 0.00 | 83 | 1005.3 |
| 20260505074519 | 69 | 201 | 14.0 | 23.0 | 0.00 | 0.00 | 0.00 | 83 | 1005.4 |
| 20260505073016 | 69 | 221 | 14.0 | 23.0 | 0.00 | 0.00 | 0.00 | 82 | 1005.5 |
| 20260505071513 | 69 | 202 | 20.0 | 26.0 | 0.00 | 0.00 | 0.00 | 81 | 1005.5 |
| 20260505070009 | 69 | 205 | 16.0 | 25.0 | 0.00 | 0.00 | 0.00 | 81 | 1005.9 |
| 20260505064509 | 70 | 199 | 16.0 | 25.0 | 0.00 | 0.00 | 0.00 | 80 | 1006.1 |
| 20260505063007 | 70 | 195 | 15.0 | 23.0 | 0.00 | 0.00 | 0.00 | 80 | 1006.1 |
| 20260505061502 | 70 | 212 | 15.0 | 22.0 | 0.00 | 0.00 | 0.00 | 79 | 1006.2 |
| 20260505060104 | 70 | 194 | 14.0 | 20.0 | 0.00 | 0.00 | 0.00 | 79 | 1006.2 |
| 20260505054602 | 70 | 198 | 13.0 | 22.0 | 0.00 | 0.00 | 0.00 | 78 | 1006.4 |
| 20260505053055 | 70 | 188 | 12.0 | 18.0 | 0.00 | 0.00 | 0.00 | 77 | 1006.4 |
| 20260505051552 | 70 | 183 | 10.0 | 18.0 | 0.00 | 0.00 | 0.00 | 76 | 1006.5 |
| 20260505041553 | 71 | 196 | 11.0 | 19.0 | 0.00 | 0.00 | 0.00 | 74 | 1006.7 |
| 20260505040056 | 71 | 195 | 11.0 | 15.0 | 0.00 | 0.00 | 0.00 | 73 | 1006.9 |
| 20260505034605 | 71 | 195 | 9.0 | 15.0 | 0.00 | 0.00 | 0.00 | 72 | 1006.9 |
| 20260505033046 | 71 | 184 | 9.0 | 14.0 | 0.00 | 0.00 | 0.00 | 71 | 1007.0 |
| 20260505031546 | 72 | 210 | 9.0 | 15.0 | 0.00 | 0.00 | 0.00 | 70 | 1007.0 |
| 20260505030049 | 72 | 188 | 11.0 | 21.0 | 0.00 | 0.00 | 0.00 | 69 | 1007.0 |
| 20260505024547 | 72 | 202 | 10.0 | 19.0 | 0.00 | 0.00 | 0.00 | 69 | 1006.7 |
| 20260505023046 | 72 | 190 | 11.0 | 17.0 | 0.00 | 0.00 | 0.00 | 68 | 1006.7 |
| 20260505021544 | 72 | 196 | 11.0 | 16.0 | 0.00 | 0.00 | 0.00 | 68 | 1006.8 |
| 20260505020054 | 73 | 190 | 11.0 | 16.0 | 0.00 | 0.00 | 0.00 | 67 | 1006.8 |
| 20260505014543 | 73 | 211 | 10.0 | 15.0 | 0.00 | 0.00 | 0.00 | 66 | 1006.7 |
| 20260505013042 | 73 | 202 | 11.0 | 15.0 | 0.00 | 0.00 | 0.00 | 65 | 1006.6 |
| 20260505011540 | 74 | 198 | 12.0 | 17.0 | 0.00 | 0.00 | 0.00 | 64 | 1006.7 |
| 20260505010052 | 74 | 190 | 11.0 | 22.0 | 0.00 | 0.00 | 0.00 | 63 | 1006.6 |
| 20260505004557 | 75 | 188 | 11.0 | 17.0 | 0.00 | 0.00 | 0.00 | 61 | 1006.6 |
| 20260505003038 | 76 | 188 | 11.0 | 18.0 | 0.00 | 0.00 | 0.00 | 60 | 1006.4 |
| 20260505001538 | 76 | 204 | 11.0 | 20.0 | 0.00 | 0.00 | 0.00 | 59 | 1006.7 |
| 20260505000037 | 77 | 194 | 12.0 | 21.0 | 0.00 | 0.00 | 0.00 | 57 | 1006.7 |
| 20260504234535 | 78 | 175 | 12.0 | 20.0 | 0.00 | 0.00 | 0.00 | 56 | 1007.0 |
| 20260504233032 | 80 | 188 | 16.0 | 23.0 | 0.00 | 0.00 | 0.00 | 54 | 1006.9 |
| 20260504231530 | 79 | 182 | 13.0 | 23.0 | 0.00 | 0.00 | 0.00 | 54 | 1007.3 |
| 20260504230029 | 80 | 186 | 15.0 | 24.0 | 0.00 | 0.00 | 0.00 | 53 | 1007.5 |
| 20260504224533 | 80 | 198 | 16.0 | 25.0 | 0.00 | 0.00 | 0.00 | 52 | 1007.5 |
| 20260504223027 | 81 | 173 | 13.0 | 22.0 | 0.00 | 0.00 | 0.00 | 51 | 1007.7 |
| 20260504221535 | 81 | 188 | 17.0 | 29.0 | 0.00 | 0.00 | 0.00 | 50 | 1008.0 |
| 20260504220023 | 80 | 200 | 14.0 | 25.0 | 0.00 | 0.00 | 0.00 | 51 | 1008.0 |
| 20260504214521 | 81 | 159 | 15.0 | 24.0 | 0.00 | 0.00 | 0.00 | 50 | 1008.1 |
| 20260504213032 | 81 | 202 | 14.0 | 28.0 | 0.00 | 0.00 | 0.00 | 50 | 1008.5 |
| 20260504211517 | 81 | 186 | 16.0 | 23.0 | 0.00 | 0.00 | 0.00 | 50 | 1008.5 |
| 20260504210017 | 81 | 205 | 17.0 | 27.0 | 0.00 | 0.00 | 0.00 | 50 | 1009.0 |
| 20260504204513 | 81 | 188 | 15.0 | 28.0 | 0.00 | 0.00 | 0.00 | 49 | 1009.2 |
| 20260504203008 | 81 | 177 | 11.0 | 22.0 | 0.00 | 0.00 | 0.00 | 49 | 1009.7 |
| 20260504201506 | 81 | 185 | 12.0 | 25.0 | 0.00 | 0.00 | 0.00 | 51 | 1009.9 |
| 20260504200006 | 81 | 163 | 13.0 | 22.0 | 0.00 | 0.00 | 0.00 | 50 | 1010.3 |
| 20260504194605 | 80 | 169 | 13.0 | 22.0 | 0.00 | 0.00 | 0.00 | 51 | 1010.5 |
| 20260504193057 | 80 | 184 | 12.0 | 22.0 | 0.00 | 0.00 | 0.00 | 51 | 1010.8 |
| 20260504191615 | 80 | 173 | 14.0 | 22.0 | 0.00 | 0.00 | 0.00 | 52 | 1010.9 |
| 20260504190053 | 79 | 185 | 11.0 | 21.0 | 0.00 | 0.00 | 0.00 | 52 | 1011.2 |
| 20260504184600 | 79 | 175 | 13.0 | 19.0 | 0.00 | 0.00 | 0.00 | 52 | 1011.4 |
| 20260504183048 | 78 | 174 | 13.0 | 24.0 | 0.00 | 0.00 | 0.00 | 52 | 1011.7 |
| 20260504181546 | 78 | 185 | 12.0 | 24.0 | 0.00 | 0.00 | 0.00 | 52 | 1011.9 |
| 20260504180043 | 77 | 173 | 12.0 | 20.0 | 0.00 | 0.00 | 0.00 | 54 | 1012.1 |
| 20260504174542 | 77 | 215 | 16.0 | 25.0 | 0.00 | 0.00 | 0.00 | 52 | 1012.2 |
| 20260504173038 | 76 | 225 | 14.0 | 21.0 | 0.00 | 0.00 | 0.00 | 54 | 1012.4 |
| 20260504171538 | 75 | 209 | 13.0 | 20.0 | 0.00 | 0.00 | 0.00 | 54 | 1012.9 |
| 20260504140105 | 65 | 219 | 9.0 | 21.0 | 0.00 | 0.00 | 0.00 | 72 | 1014.3 |